Volver al catálogo

COSMOS 2390

ActivoMilitarPO
NORAD 27464·PAYLOAD·🇷🇺 Russia

Lanzado Jul 8, 2002 desde Plesetsk Cosmodrome

Loading…

Próximos Pases (próximas 24 horas)

TLE

ActualizadoSource: Space-Track

Época: Sep 14, 2026, 14:10 UTC

1 27464U 02036A   26257.59048262  .00000038  00000-0  19931-3 0  9999
2 27464  82.4819 289.0553 0026608  64.2198 296.1623 12.44625261 98796

Sigue COSMOS 2390 en tiempo real con AllMySat

Download on the App Store